Kenai, AK

11:15 AM AKDT on July 28, 2017 (GMT -0800)
Kenai Municipal

Weather History for PAEN - September, 2013

Change the Weather History Date:

Wednesday, September 11, 2013

  Actual Average Record
Temperature  
Mean Temperature 50 °F -  
Max Temperature 54 °F 56 °F 65 °F (1968)
Min Temperature 46 °F 39 °F 24 °F (1992)
Degree Days  
Heating Degree Days 15    
Moisture  
Dew Point 48 °F    
Average Humidity 95    
Maximum Humidity 100    
Minimum Humidity 77    
Precipitation  
Precipitation 0.31 in - - ()
Sea Level Pressure  
Sea Level Pressure 29.70 in    
Wind  
Wind Speed 7 mph (NW)    
Max Wind Speed 21 mph    
Max Gust Speed 28 mph    
Visibility 8 miles    
Events Rain    
Averages and records for this station are not official NWS values.
T = Trace of Precipitation, MM = Missing Value Source: NWS Daily Summary

Daily Weather History Graph

Daily Weather History Graph

Search for Another Location

Airport or City:

Trip Planner

Search our weather history database for the weather conditions in past years. The results will help you decide how hot, cold, wet, or windy it might be!

Date:

Astronomy

Sep. 11, 2013 Rise Set
Actual Time 7:23 AM AKDT 8:37 PM AKDT
Civil Twilight 6:40 AM AKDT 9:20 PM AKDT
Nautical Twilight 5:45 AM AKDT 10:15 PM AKDT
Astronomical Twilight 4:41 AM AKDT 11:18 PM AKDT
Moon 3:50 PM AKDT (9/11) 10:55 PM AKDT (9/11)
Length of Visible Light 14h 40m
Length of Day
13h 13m
Waxing Crescent, 40% of the Moon is Illuminated
Sep 11
Waxing Crescent
Sep 12
First Quarter
Sep 19
Full
Sep 26
Last Quarter
Oct 4
New

Hourly Weather History & Observations

Time (AKDT) Temp. Windchill Dew Point Humidity Pressure Visibility Wind Dir Wind Speed Gust Speed Precip Events Conditions
12:53 AM 50.0 °F - 50.0 °F 100% 29.68 in 10.0 mi NE 8.1 mph - 0.01 in Rain Light Rain
1:53 AM 48.9 °F - 48.9 °F 100% 29.67 in 10.0 mi NE 6.9 mph - 0.03 in Rain Light Rain
2:53 AM 48.9 °F - 48.9 °F 100% 29.65 in 10.0 mi NNE 5.8 mph - 0.02 in Rain Light Rain
3:09 AM 48.2 °F - 48.2 °F 100% 29.64 in 10.0 mi North 5.8 mph - 0.01 in Rain Light Rain
3:26 AM 48.2 °F - 48.2 °F 100% 29.63 in 8.0 mi North 5.8 mph - 0.03 in Rain Light Rain
3:53 AM 48.9 °F - 48.9 °F 100% 29.63 in 8.0 mi NNE 6.9 mph - 0.05 in Rain Light Rain
4:26 AM 48.2 °F - 48.2 °F 100% 29.62 in 9.0 mi NE 6.9 mph - 0.03 in Rain Light Rain
4:53 AM 48.9 °F - 48.9 °F 100% 29.62 in 10.0 mi NNE 6.9 mph - 0.04 in Rain Light Rain
5:53 AM 48.0 °F - 48.0 °F 100% 29.62 in 10.0 mi North 5.8 mph - 0.02 in Rain Light Rain
6:53 AM 48.0 °F - 48.0 °F 100% 29.62 in 4.0 mi North 6.9 mph - 0.03 in Rain Light Rain
6:58 AM 48.2 °F - 48.2 °F 100% 29.62 in 2.5 mi North 5.8 mph - 0.02 in Rain Rain
7:00 AM 48.2 °F - 48.2 °F 100% 29.62 in 3.0 mi NNW 5.8 mph - 0.03 in Rain Rain
7:23 AM 48.2 °F - 48.2 °F 100% 29.62 in 3.0 mi NNW 5.8 mph - 0.06 in Rain Light Rain
7:51 AM 48.2 °F - 48.2 °F 100% 29.62 in 4.0 mi NNW 3.5 mph - 0.08 in Rain Light Rain
7:53 AM 48.0 °F - 48.0 °F 100% 29.63 in 4.0 mi NNW 3.5 mph - 0.08 in Rain Light Rain
8:07 AM 48.2 °F - 48.2 °F 100% 29.63 in 4.0 mi NW 4.6 mph - 0.01 in Rain Light Rain
8:11 AM 46.4 °F 43.5 °F 46.4 °F 100% 29.63 in 2.5 mi NNW 5.8 mph - 0.01 in Rain Light Rain
8:13 AM 46.4 °F 43.5 °F 46.4 °F 100% 29.63 in 2.5 mi NNW 5.8 mph - 0.01 in Rain Light Rain
8:46 AM 46.4 °F 44.3 °F 46.4 °F 100% 29.63 in 4.0 mi North 4.6 mph - 0.02 in Rain Light Rain
8:53 AM 46.9 °F - - N/A% 29.64 in 6.0 mi NNW 3.5 mph - 0.02 in   Haze
9:46 AM 48.2 °F - 48.2 °F 100% 29.65 in 10.0 mi Calm Calm - N/A   Overcast
9:53 AM 48.0 °F - 48.0 °F 100% 29.66 in 10.0 mi Calm Calm - N/A   Overcast
10:05 AM 48.2 °F - 48.2 °F 100% 29.66 in 10.0 mi Calm Calm - N/A   Overcast
10:53 AM 48.9 °F - 48.9 °F 100% 29.68 in 10.0 mi South 4.6 mph - N/A   Overcast
11:53 AM 50.0 °F - 50.0 °F 100% 29.70 in 10.0 mi SSW 10.4 mph - 0.01 in   Overcast
12:53 PM 51.1 °F - 51.1 °F 100% 29.73 in 10.0 mi SSW 11.5 mph - N/A   Overcast
1:23 PM 51.8 °F - 51.8 °F 100% 29.73 in 10.0 mi SSW 11.5 mph - N/A   Mostly Cloudy
1:53 PM 53.1 °F - 51.1 °F 93% 29.74 in 10.0 mi SSW 13.8 mph - N/A   Clear
2:53 PM 53.1 °F - 48.9 °F 86% 29.75 in 10.0 mi SSW 20.7 mph - N/A   Clear
3:53 PM 53.1 °F - 46.9 °F 80% 29.77 in 10.0 mi SSW 19.6 mph 27.6 mph N/A   Clear
4:53 PM 54.0 °F - 48.0 °F 80% 29.79 in 10.0 mi SSW 16.1 mph - N/A   Clear
5:53 PM 53.1 °F - 48.0 °F 83% 29.81 in 10.0 mi SSW 17.3 mph 24.2 mph N/A   Clear
6:53 PM 52.0 °F - 46.9 °F 83% 29.82 in 10.0 mi SSW 17.3 mph 21.9 mph N/A   Clear
7:53 PM 50.0 °F - 46.0 °F 86% 29.83 in 10.0 mi SSW 10.4 mph - N/A   Clear
8:53 PM 50.0 °F - 43.0 °F 77% 29.85 in 10.0 mi South 8.1 mph - N/A   Clear
9:53 PM 48.0 °F - 44.1 °F 86% 29.87 in 10.0 mi SE 4.6 mph - N/A   Partly Cloudy
10:53 PM 48.0 °F - 43.0 °F 83% 29.89 in 10.0 mi SSE 5.8 mph - N/A   Mostly Cloudy
11:53 PM 48.9 °F - 43.0 °F 80% 29.91 in 10.0 mi South 5.8 mph - N/A   Overcast